Content
SEND FEEDBACK

Daily
Averages
Monthly
Summary
United States of America

ANN ARBOR, MICHIGAN


Home > North America > United States > Michigan
Elevation: 759 feet     Latitude: 42 17N     Longitude: 083 43W

WEATHER
 
SELECT A DAY
Number of Records: 207,020;   Date Range: 1/1/95 - 10/21/14
 
SHARE

PRINT THIS DATA

[ ← Previous Day ]
WEATHER ALMANAC - FEBRUARY 3, 2013
[ Next Day → ]
[ °C ]   °F
Weather ElementAverageHighLow
Temperature15.8 °F21.2 °F (2:06 pm) (5:53 am)
Dewpoint9.7 °F17.6 °F (4:17 pm)-4 °F (5:53 am)
Humidity77.3 %87 % (4:53 am)62 % (8:53 pm)
Barometer29.92 in30.03 in (9:53 pm)29.83 in (2:06 pm)
Wind Speed9.2 mph17.3 mph (5:25 pm)
Wind Gust25.3 mph (4:37 pm)
Weather ElementAverage
Visibility7.1 mi
Wind DirectionSW (226.4 °)

Weather ElementTotal
Precipitation---
Heating Degree Days54.4 (Base 65)
Averaged from 39 records on February 3, 2013
WEATHER CONDITIONS BREAKOUT
WIND DIRECTION BREAKOUT
WEATHER BY HOUR - FEBRUARY 3, 2013
[ °C ]   °F
Local TimeTemperatureDewpointHumidityBarometerVisibilityWind DirectionWind SpeedGust SpeedPrecipitationEventsConditions
1:53 AM3.9 °F0.0 °F84 %30.02 in10.0 miCalmScattered Clouds
2:53 AM3.9 °F0.0 °F84 %30.01 in10.0 miWest (260°)3.5 mphMostly Cloudy
3:53 AM6.1 °F1.9 °F83 %29.97 in10.0 miCalmOvercast
4:53 AM1.0 °F-2.0 °F87 %29.97 in10.0 miCalmClear
5:53 AM0.0 °F-4.0 °F83 %29.96 in10.0 miWest (260°)4.6 mphMostly Cloudy
6:50 AM6.8 °F3.2 °F85 %29.90 in10.0 miCalmOvercast
6:53 AM6.1 °F3.0 °F87 %29.95 in10.0 miCalmOvercast
7:53 AM6.1 °F3.0 °F87 %29.95 in10.0 miCalmMostly Cloudy
8:53 AM8.1 °F5.0 °F87 %29.95 in10.0 miCalmScattered Clouds
9:53 AM12.0 °F8.1 °F84 %29.95 in9.0 miWSW (240°)4.6 mphOvercast
10:53 AM14.0 °F8.1 °F77 %29.94 in10.0 miWest (270°)8.1 mph0.00 inOvercast
11:53 AM17.1 °F10.9 °F77 %29.92 in9.0 miWSW (250°)8.1 mph0.00 inOvercast
12:53 PM19.0 °F12.0 °F74 %29.90 in10.0 miWSW (250°)10.4 mph0.00 inOvercast
1:53 PM21.0 °F14.0 °F74 %29.89 in9.0 miWSW (250°)10.4 mph0.00 inSnowLight Snow
2:06 PM21.2 °F12.2 °F68 %29.83 in9.0 miWest (260°)12.7 mph0.00 inOvercast
2:16 PM21.2 °F12.2 °F68 %29.83 in5.0 miWest (260°)15.0 mph0.00 inSnowLight Snow
2:22 PM21.2 °F14.0 °F74 %29.83 in6.0 miWest (260°)10.4 mph0.00 inSnowLight Snow
2:53 PM21.0 °F12.9 °F71 %29.88 in9.0 miWest (280°)15.0 mph0.00 inOvercast
3:35 PM21.2 °F14.0 °F74 %29.85 in5.0 miWest (260°)11.5 mph0.00 inSnowLight Snow
3:53 PM21.0 °F15.1 °F78 %29.90 in3.0 miWest (260°)10.4 mph0.00 inSnowLight Snow
4:02 PM21.2 °F15.8 °F80 %29.85 in2.0 miWest (260°)11.5 mph0.00 inSnowLight Snow
4:14 PM21.2 °F15.8 °F80 %29.86 in1.2 miWNW (290°)12.7 mph0.00 inSnowLight Snow
4:17 PM21.2 °F17.6 °F86 %29.86 in0.5 miWNW (290°)11.5 mph0.00 inFog-SnowSnow
4:37 PM19.4 °F15.8 °F86 %29.86 in1.0 miWest (280°)15.0 mph25.3 mph0.00 inSnowLight Snow
4:42 PM19.4 °F15.8 °F86 %29.86 in7.0 miWest (270°)15.0 mph0.00 inOvercast
4:53 PM19.9 °F15.1 °F81 %29.92 in9.0 miWest (280°)13.8 mph0.00 inOvercast
5:25 PM21.2 °F14.0 °F74 %29.88 in1.8 miWNW (290°)17.3 mph25.3 mph0.00 inSnowLight Snow
5:34 PM19.4 °F14.0 °F80 %29.88 in1.2 miWNW (290°)15.0 mph0.00 inSnowLight Snow
5:38 PM19.4 °F14.0 °F80 %29.89 in2.0 miWNW (290°)12.7 mph0.00 inSnowLight Snow
5:53 PM19.9 °F12.9 °F74 %29.94 in4.0 miWNW (290°)17.3 mph25.3 mph0.00 inSnowLight Snow
6:00 PM19.4 °F10.4 °F68 %29.89 in9.0 miWNW (290°)12.7 mph25.3 mph0.00 inMostly Cloudy
6:51 PM19.4 °F12.2 °F74 %29.92 in4.0 miWNW (300°)12.7 mph20.7 mph0.00 inSnowLight Snow
6:53 PM19.0 °F12.9 °F77 %29.97 in3.0 miWNW (300°)12.7 mph20.7 mph0.00 inSnowLight Snow
7:07 PM19.4 °F10.4 °F68 %29.93 in9.0 miWNW (300°)13.8 mph0.00 inOvercast
7:53 PM18.0 °F8.1 °F65 %30.00 in9.0 miNW (310°)12.7 mph23.0 mph0.00 inOvercast
8:53 PM17.1 °F6.1 °F62 %30.02 in10.0 miWNW (300°)9.2 mph19.6 mphOvercast
9:53 PM17.1 °F6.1 °F62 %30.03 in10.0 miNW (320°)5.8 mphOvercast
10:53 PM17.1 °F8.1 °F68 %30.03 in10.0 miWest (270°)5.8 mphOvercast
11:53 PM17.1 °F10.9 °F77 %30.03 in10.0 miWSW (250°)6.9 mphOvercast
Hourly data recorded from KARB, located miles away from Ann Arbor, Michigan







STORIES FROM OUR PARTNERS